Time,TemperatureF,DewpointF,PressureIn,WindDirection,WindDirectionDegrees,WindSpeedMPH,WindSpeedGustMPH,Humidity,HourlyPrecipIn,Conditions,Clouds,dailyrainin,SoftwareType,DateUTC
2013-11-07 00:01:00,55.4,54.0,30.09,WNW,294,0.0,0.0,95,0.00,,,0.01,meteohub,2013-11-07 05:01:00,
2013-11-07 00:02:00,55.4,54.3,30.09,WNW,294,0.0,0.0,96,0.00,,,0.01,meteohub,2013-11-07 05:02:00,
2013-11-07 00:03:00,55.4,54.3,30.09,WNW,294,0.0,0.0,96,0.00,,,0.01,meteohub,2013-11-07 05:03:00,
2013-11-07 00:06:00,55.6,54.1,30.09,WNW,294,0.0,0.0,95,0.00,,,0.01,meteohub,2013-11-07 05:06:00,
2013-11-07 00:11:00,55.6,54.1,30.08,WNW,294,0.0,0.0,95,0.00,,,0.01,meteohub,2013-11-07 05:11:00,
2013-11-07 00:16:00,55.6,54.1,30.08,WNW,294,0.0,0.0,95,0.00,,,0.01,meteohub,2013-11-07 05:16:00,
2013-11-07 00:21:00,55.6,54.1,30.07,WNW,294,0.0,0.0,95,0.00,,,0.01,meteohub,2013-11-07 05:21:00,
2013-11-07 00:27:00,55.6,54.1,30.07,WNW,294,0.0,0.0,95,0.00,,,0.01,meteohub,2013-11-07 05:27:00,
2013-11-07 00:32:00,55.6,54.1,30.07,WNW,294,0.0,0.0,95,0.00,,,0.01,meteohub,2013-11-07 05:32:00,
2013-11-07 00:37:00,55.2,53.8,30.07,WNW,294,0.0,0.0,95,0.00,,,0.01,meteohub,2013-11-07 05:37:00,
2013-11-07 00:42:00,55.2,53.8,30.06,WNW,294,0.0,0.0,95,0.00,,,0.01,meteohub,2013-11-07 05:42:00,
2013-11-07 00:47:00,55.2,53.8,30.06,WNW,294,0.0,0.0,95,0.00,,,0.01,meteohub,2013-11-07 05:47:00,
2013-11-07 00:52:00,55.0,53.6,30.06,WNW,294,0.0,0.0,95,0.00,,,0.01,meteohub,2013-11-07 05:52:00,
2013-11-07 00:57:00,55.0,53.6,30.06,WNW,294,0.0,0.0,95,0.00,,,0.01,meteohub,2013-11-07 05:57:00,
2013-11-07 01:02:00,54.9,53.4,30.06,WNW,294,0.0,0.0,95,0.00,,,0.01,meteohub,2013-11-07 06:02:00,
2013-11-07 01:07:00,54.9,53.8,30.06,WNW,294,0.0,0.0,96,0.00,,,0.01,meteohub,2013-11-07 06:07:00,
2013-11-07 01:12:00,54.9,53.8,30.05,WNW,294,0.0,0.0,96,0.00,,,0.01,meteohub,2013-11-07 06:12:00,
2013-11-07 01:17:00,54.9,53.8,30.05,WNW,294,0.0,0.0,96,0.00,,,0.01,meteohub,2013-11-07 06:17:00,
2013-11-07 01:22:00,54.9,54.0,30.04,WNW,294,0.0,0.0,97,0.00,,,0.01,meteohub,2013-11-07 06:22:00,
2013-11-07 01:27:00,55.0,54.1,30.04,WNW,294,0.0,0.0,97,0.00,,,0.01,meteohub,2013-11-07 06:27:00,
2013-11-07 01:32:00,55.0,54.1,30.04,WNW,294,0.0,0.0,97,0.00,,,0.01,meteohub,2013-11-07 06:32:00,
2013-11-07 01:37:00,55.0,54.1,30.04,WNW,294,0.0,0.0,97,0.00,,,0.01,meteohub,2013-11-07 06:37:00,
2013-11-07 01:42:00,55.0,54.1,30.04,WNW,294,0.0,0.0,97,0.00,,,0.01,meteohub,2013-11-07 06:42:00,
2013-11-07 01:47:00,55.0,54.1,30.04,WNW,294,0.0,0.0,97,0.00,,,0.01,meteohub,2013-11-07 06:47:00,
2013-11-07 01:52:00,55.0,54.1,30.03,WNW,294,0.0,0.0,97,0.00,,,0.01,meteohub,2013-11-07 06:52:00,
2013-11-07 01:57:00,55.0,54.1,30.03,WNW,294,0.0,0.0,97,0.00,,,0.01,meteohub,2013-11-07 06:57:00,
2013-11-07 02:02:00,55.0,54.1,30.03,WNW,294,0.0,0.0,97,0.00,,,0.01,meteohub,2013-11-07 07:02:00,
2013-11-07 02:07:00,55.0,54.1,30.03,WNW,294,0.0,0.0,97,0.00,,,0.01,meteohub,2013-11-07 07:07:00,
2013-11-07 02:12:00,55.0,54.1,30.03,WNW,294,0.0,0.0,97,0.00,,,0.01,meteohub,2013-11-07 07:12:00,
2013-11-07 02:17:00,55.0,54.1,30.02,WNW,294,0.0,0.0,97,0.00,,,0.01,meteohub,2013-11-07 07:17:00,
2013-11-07 02:22:00,55.0,54.1,30.02,WNW,294,0.0,0.0,97,0.00,,,0.01,meteohub,2013-11-07 07:22:00,
2013-11-07 02:27:00,55.0,54.1,30.01,WNW,294,0.0,0.0,97,0.00,,,0.01,meteohub,2013-11-07 07:27:00,
2013-11-07 02:32:00,55.0,54.1,30.01,WNW,294,0.0,0.0,97,0.00,,,0.01,meteohub,2013-11-07 07:32:00,
2013-11-07 02:38:00,55.2,54.3,30.01,WNW,294,0.0,0.0,97,0.00,,,0.01,meteohub,2013-11-07 07:38:00,
2013-11-07 02:43:00,55.4,54.5,30.01,WNW,294,0.0,0.0,97,0.00,,,0.01,meteohub,2013-11-07 07:43:00,
2013-11-07 02:48:00,55.8,54.9,30.00,WNW,294,0.0,0.0,97,0.00,,,0.01,meteohub,2013-11-07 07:48:00,
2013-11-07 02:53:00,55.9,55.4,30.00,WNW,294,0.0,0.0,98,0.00,,,0.01,meteohub,2013-11-07 07:53:00,
2013-11-07 02:58:00,56.1,55.6,29.99,WNW,294,0.0,0.0,98,0.00,,,0.01,meteohub,2013-11-07 07:58:00,
2013-11-07 03:04:00,56.5,55.9,29.99,WNW,294,0.0,0.0,98,0.00,,,0.01,meteohub,2013-11-07 08:04:00,
2013-11-07 03:09:00,56.7,56.1,29.99,WNW,294,0.0,0.0,98,0.00,,,0.01,meteohub,2013-11-07 08:09:00,
2013-11-07 03:14:00,57.0,56.5,29.99,WNW,294,0.0,0.0,98,0.00,,,0.01,meteohub,2013-11-07 08:14:00,
2013-11-07 03:19:00,57.2,56.7,29.98,WNW,294,0.0,0.0,98,0.00,,,0.01,meteohub,2013-11-07 08:19:00,
2013-11-07 03:24:00,57.4,56.8,29.98,WNW,294,0.0,0.0,98,0.00,,,0.01,meteohub,2013-11-07 08:24:00,
2013-11-07 03:29:00,57.7,57.2,29.97,WNW,294,0.0,0.0,98,0.00,,,0.01,meteohub,2013-11-07 08:29:00,
2013-11-07 03:35:00,57.7,57.2,29.97,WNW,294,0.0,0.0,98,0.00,,,0.01,meteohub,2013-11-07 08:35:00,
2013-11-07 03:40:00,57.9,57.4,29.97,WNW,294,0.0,0.0,98,0.00,,,0.01,meteohub,2013-11-07 08:40:00,
2013-11-07 03:45:00,57.9,57.4,29.97,WNW,294,0.0,0.0,98,0.00,,,0.01,meteohub,2013-11-07 08:45:00,
2013-11-07 03:50:00,58.1,57.6,29.97,WNW,294,0.0,0.0,98,0.00,,,0.01,meteohub,2013-11-07 08:50:00,
2013-11-07 03:55:00,58.3,57.7,29.96,WNW,294,0.0,0.0,98,0.00,,,0.01,meteohub,2013-11-07 08:55:00,
2013-11-07 04:00:00,58.3,57.7,29.96,WNW,294,0.0,0.0,98,0.00,,,0.01,meteohub,2013-11-07 09:00:00,
2013-11-07 04:05:00,58.5,57.9,29.96,WNW,294,0.0,0.0,98,0.00,,,0.01,meteohub,2013-11-07 09:05:00,
2013-11-07 04:11:00,58.5,57.9,29.96,WNW,294,0.0,0.0,98,0.00,,,0.01,meteohub,2013-11-07 09:11:00,
2013-11-07 04:16:00,58.5,57.9,29.96,WNW,294,0.0,0.0,98,0.00,,,0.01,meteohub,2013-11-07 09:16:00,
2013-11-07 04:21:00,58.5,57.9,29.95,WNW,294,0.0,0.0,98,0.00,,,0.01,meteohub,2013-11-07 09:21:00,
2013-11-07 04:26:00,58.5,57.9,29.95,WNW,294,0.0,0.0,98,0.00,,,0.01,meteohub,2013-11-07 09:26:00,
2013-11-07 04:31:00,58.6,58.1,29.95,WNW,294,0.0,0.0,98,0.00,,,0.01,meteohub,2013-11-07 09:31:00,
2013-11-07 04:36:00,58.6,58.1,29.95,WNW,294,0.0,0.0,98,0.00,,,0.01,meteohub,2013-11-07 09:36:00,
2013-11-07 04:41:00,58.6,58.1,29.94,WNW,294,0.0,0.0,98,0.00,,,0.01,meteohub,2013-11-07 09:41:00,
2013-11-07 04:47:00,58.6,58.1,29.94,WNW,294,0.0,0.0,98,0.00,,,0.01,meteohub,2013-11-07 09:47:00,
2013-11-07 04:52:00,58.6,58.1,29.94,WNW,294,0.0,0.0,98,0.00,,,0.01,meteohub,2013-11-07 09:52:00,
2013-11-07 04:57:00,58.8,58.3,29.93,WNW,294,0.0,0.0,98,0.00,,,0.01,meteohub,2013-11-07 09:57:00,
2013-11-07 05:02:00,58.8,58.3,29.93,WNW,294,0.0,0.0,98,0.00,,,0.01,meteohub,2013-11-07 10:02:00,
2013-11-07 05:07:00,58.8,58.3,29.92,WNW,294,0.0,0.0,98,0.00,,,0.01,meteohub,2013-11-07 10:07:00,
2013-11-07 05:12:00,58.8,58.3,29.92,WNW,294,0.0,0.0,98,0.00,,,0.01,meteohub,2013-11-07 10:12:00,
2013-11-07 05:17:00,59.0,58.5,29.91,WNW,294,0.0,0.0,98,0.00,,,0.01,meteohub,2013-11-07 10:17:00,
2013-11-07 05:22:00,59.0,58.5,29.91,WNW,294,0.0,0.0,98,0.00,,,0.01,meteohub,2013-11-07 10:22:00,
2013-11-07 05:27:00,59.0,58.5,29.91,WNW,294,0.0,0.0,98,0.00,,,0.01,meteohub,2013-11-07 10:27:00,
2013-11-07 05:32:00,59.0,58.5,29.91,WNW,294,0.0,0.0,98,0.00,,,0.01,meteohub,2013-11-07 10:32:00,
2013-11-07 05:37:00,59.0,58.5,29.91,WNW,294,0.0,0.0,98,0.00,,,0.01,meteohub,2013-11-07 10:37:00,
2013-11-07 05:42:00,59.0,58.5,29.90,WNW,294,0.0,0.0,98,0.00,,,0.01,meteohub,2013-11-07 10:42:00,
2013-11-07 05:47:00,59.0,58.5,29.90,WNW,294,0.0,0.0,98,0.00,,,0.01,meteohub,2013-11-07 10:47:00,
2013-11-07 05:52:00,59.0,58.5,29.90,WNW,294,0.0,0.0,98,0.00,,,0.01,meteohub,2013-11-07 10:52:00,
2013-11-07 05:57:00,59.0,58.5,29.90,WNW,294,0.0,0.0,98,0.00,,,0.01,meteohub,2013-11-07 10:57:00,
2013-11-07 06:02:00,59.0,58.5,29.90,WNW,294,0.0,0.0,98,0.00,,,0.01,meteohub,2013-11-07 11:02:00,
2013-11-07 06:07:00,59.0,58.5,29.89,WNW,294,0.0,0.0,98,0.00,,,0.01,meteohub,2013-11-07 11:07:00,
2013-11-07 06:12:00,59.2,58.6,29.89,WNW,294,0.0,0.0,98,0.00,,,0.01,meteohub,2013-11-07 11:12:00,
2013-11-07 06:17:00,59.2,58.6,29.89,WNW,294,0.0,0.0,98,0.00,,,0.01,meteohub,2013-11-07 11:17:00,
2013-11-07 06:22:00,59.0,58.5,29.89,WNW,294,0.0,0.0,98,0.00,,,0.01,meteohub,2013-11-07 11:22:00,
2013-11-07 06:27:00,59.0,58.5,29.88,WNW,294,0.0,0.0,98,0.00,,,0.01,meteohub,2013-11-07 11:27:00,
2013-11-07 06:32:00,59.2,58.6,29.88,WNW,294,0.0,0.0,98,0.00,,,0.01,meteohub,2013-11-07 11:32:00,
2013-11-07 06:34:00,59.2,58.6,29.88,WNW,294,0.0,0.0,98,0.00,,,0.01,meteohub,2013-11-07 11:34:00,
2013-11-07 06:39:00,59.2,58.6,29.88,WNW,294,0.0,0.0,98,0.00,,,0.01,meteohub,2013-11-07 11:39:00,
2013-11-07 06:44:00,59.2,58.6,29.88,WNW,294,0.0,0.0,98,0.00,,,0.01,meteohub,2013-11-07 11:44:00,
2013-11-07 06:49:00,59.2,58.6,29.88,WNW,294,0.0,0.0,98,0.00,,,0.01,meteohub,2013-11-07 11:49:00,
2013-11-07 06:55:00,59.2,58.6,29.87,WNW,294,0.0,0.0,98,0.00,,,0.01,meteohub,2013-11-07 11:55:00,
2013-11-07 07:00:00,59.2,58.6,29.87,WNW,294,0.0,0.0,98,0.00,,,0.01,meteohub,2013-11-07 12:00:00,
2013-11-07 07:05:00,59.2,58.6,29.88,WNW,294,0.0,0.0,98,0.00,,,0.01,meteohub,2013-11-07 12:05:00,
2013-11-07 07:10:00,59.4,58.8,29.88,WNW,294,0.0,0.0,98,0.00,,,0.01,meteohub,2013-11-07 12:10:00,
2013-11-07 07:15:00,59.4,58.8,29.87,WNW,294,0.0,0.0,98,0.00,,,0.01,meteohub,2013-11-07 12:15:00,
2013-11-07 07:20:00,59.4,58.8,29.87,WNW,294,0.0,0.0,98,0.00,,,0.01,meteohub,2013-11-07 12:20:00,
2013-11-07 07:25:00,59.4,58.8,29.87,WNW,294,0.0,0.0,98,0.00,,,0.01,meteohub,2013-11-07 12:25:00,
2013-11-07 07:31:00,59.4,58.8,29.87,WNW,294,0.0,0.0,98,0.00,,,0.01,meteohub,2013-11-07 12:31:00,
2013-11-07 07:36:00,59.4,58.8,29.87,WNW,294,0.0,0.0,98,0.00,,,0.01,meteohub,2013-11-07 12:36:00,
2013-11-07 07:41:00,59.5,59.0,29.87,WNW,294,0.0,0.0,98,0.00,,,0.01,meteohub,2013-11-07 12:41:00,
2013-11-07 07:46:00,59.5,59.0,29.87,WNW,294,0.0,0.0,98,0.00,,,0.01,meteohub,2013-11-07 12:46:00,
2013-11-07 07:51:00,59.5,59.0,29.87,WNW,294,0.0,0.0,98,0.00,,,0.01,meteohub,2013-11-07 12:51:00,
2013-11-07 07:56:00,59.5,59.0,29.87,WNW,294,0.0,0.0,98,0.00,,,0.01,meteohub,2013-11-07 12:56:00,
2013-11-07 08:01:00,59.7,59.2,29.87,WNW,294,0.0,0.0,98,0.00,,,0.01,meteohub,2013-11-07 13:01:00,
2013-11-07 08:07:00,59.7,59.2,29.86,WNW,294,0.0,0.0,98,0.00,,,0.01,meteohub,2013-11-07 13:07:00,
2013-11-07 08:12:00,59.9,59.0,29.86,WNW,294,0.0,0.0,97,0.00,,,0.01,meteohub,2013-11-07 13:12:00,
2013-11-07 08:17:00,60.1,59.2,29.86,WNW,294,0.0,0.0,97,0.00,,,0.01,meteohub,2013-11-07 13:17:00,
2013-11-07 08:22:00,60.3,59.4,29.86,WNW,294,0.0,0.0,97,0.00,,,0.01,meteohub,2013-11-07 13:22:00,
2013-11-07 08:27:00,60.4,59.5,29.86,WNW,294,0.0,0.0,97,0.00,,,0.01,meteohub,2013-11-07 13:27:00,
2013-11-07 08:32:00,60.4,59.4,29.86,WNW,294,0.0,0.0,96,0.00,,,0.01,meteohub,2013-11-07 13:32:00,
2013-11-07 08:37:00,60.4,59.4,29.85,WNW,294,0.0,0.0,96,0.00,,,0.01,meteohub,2013-11-07 13:37:00,
2013-11-07 08:42:00,60.6,59.5,29.85,WNW,294,0.0,0.0,96,0.00,,,0.01,meteohub,2013-11-07 13:42:00,
2013-11-07 08:47:00,61.0,59.5,29.85,WNW,294,0.0,0.0,95,0.00,,,0.01,meteohub,2013-11-07 13:47:00,
2013-11-07 08:52:00,61.2,59.7,29.85,WNW,294,0.0,0.0,95,0.00,,,0.01,meteohub,2013-11-07 13:52:00,
2013-11-07 08:57:00,61.3,59.5,29.85,WNW,294,0.0,0.0,94,0.00,,,0.01,meteohub,2013-11-07 13:57:00,
2013-11-07 09:02:00,61.3,59.5,29.85,WNW,294,0.0,0.0,94,0.00,,,0.01,meteohub,2013-11-07 14:02:00,
2013-11-07 09:07:00,61.3,59.4,29.86,WNW,294,0.0,0.0,93,0.00,,,0.01,meteohub,2013-11-07 14:07:00,
2013-11-07 09:12:00,61.3,59.4,29.85,WNW,294,0.0,0.0,93,0.00,,,0.01,meteohub,2013-11-07 14:12:00,
2013-11-07 09:17:00,61.3,59.4,29.85,WNW,294,0.0,0.0,93,0.37,,,0.38,meteohub,2013-11-07 14:17:00,
2013-11-07 09:22:00,61.3,59.4,29.84,WNW,294,0.0,0.0,93,1.09,,,1.10,meteohub,2013-11-07 14:22:00,
2013-11-07 09:27:00,61.5,59.5,29.85,WNW,294,0.0,0.0,93,1.58,,,1.59,meteohub,2013-11-07 14:27:00,
2013-11-07 09:32:00,61.5,59.2,29.84,WNW,294,0.0,0.0,92,2.81,,,2.82,meteohub,2013-11-07 14:32:00,
2013-11-07 09:37:00,61.5,59.2,29.84,WNW,294,0.0,0.0,92,2.91,,,2.92,meteohub,2013-11-07 14:37:00,
2013-11-07 09:42:00,61.5,59.2,29.83,WNW,294,0.0,0.0,92,3.03,,,3.04,meteohub,2013-11-07 14:42:00,
2013-11-07 09:47:00,61.5,59.2,29.83,WNW,294,0.0,0.0,92,3.36,,,3.37,meteohub,2013-11-07 14:47:00,
2013-11-07 09:52:00,61.7,59.4,29.83,WNW,294,0.0,0.0,92,3.89,,,3.90,meteohub,2013-11-07 14:52:00,
2013-11-07 09:57:00,61.9,59.5,29.83,WNW,294,0.0,0.0,92,4.29,,,4.30,meteohub,2013-11-07 14:57:00,
2013-11-07 10:02:00,61.9,59.5,29.83,WNW,294,0.0,0.0,92,4.51,,,4.52,meteohub,2013-11-07 15:02:00,
2013-11-07 10:07:00,62.1,59.4,29.82,WNW,294,0.0,0.0,91,4.51,,,4.52,meteohub,2013-11-07 15:07:00,
2013-11-07 10:12:00,62.1,59.7,29.82,WNW,294,0.0,0.0,92,4.37,,,4.52,meteohub,2013-11-07 15:12:00,
2013-11-07 10:17:00,62.2,59.5,29.82,WNW,294,0.0,0.0,91,3.71,,,4.52,meteohub,2013-11-07 15:17:00,
2013-11-07 10:22:00,62.1,59.4,29.81,WNW,294,0.0,0.0,91,3.38,,,4.52,meteohub,2013-11-07 15:22:00,
2013-11-07 10:27:00,62.1,59.2,29.81,WNW,294,0.0,0.0,90,2.61,,,4.52,meteohub,2013-11-07 15:27:00,
2013-11-07 10:33:00,61.9,59.2,29.81,WNW,294,0.0,0.0,91,2.02,,,4.84,meteohub,2013-11-07 15:33:00,
2013-11-07 10:38:00,61.5,58.8,29.80,WNW,294,0.0,0.0,91,3.06,,,6.10,meteohub,2013-11-07 15:38:00,
2013-11-07 10:43:00,61.3,58.6,29.80,WNW,294,0.0,0.0,91,3.70,,,6.82,meteohub,2013-11-07 15:43:00,
2013-11-07 10:48:00,61.2,58.8,29.80,WNW,294,0.0,0.0,92,4.65,,,8.26,meteohub,2013-11-07 15:48:00,
2013-11-07 10:53:00,61.2,58.8,29.80,WNW,294,0.0,0.0,92,5.57,,,9.58,meteohub,2013-11-07 15:53:00,
2013-11-07 10:58:00,61.2,58.8,29.80,WNW,294,0.0,0.0,92,6.00,,,10.30,meteohub,2013-11-07 15:58:00,
2013-11-07 11:04:00,60.8,58.5,29.79,WNW,294,0.0,0.0,92,7.34,,,11.86,meteohub,2013-11-07 16:04:00,
2013-11-07 11:09:00,60.6,58.6,29.79,WNW,294,0.0,0.0,93,8.10,,,12.62,meteohub,2013-11-07 16:09:00,
2013-11-07 11:14:00,60.4,58.5,29.79,WNW,294,0.0,0.0,93,8.37,,,12.89,meteohub,2013-11-07 16:14:00,
2013-11-07 11:19:00,60.3,58.3,29.78,WNW,294,0.0,0.0,93,8.77,,,13.29,meteohub,2013-11-07 16:19:00,
2013-11-07 11:24:00,60.3,58.5,29.79,WNW,294,0.0,0.0,94,8.84,,,13.36,meteohub,2013-11-07 16:24:00,
2013-11-07 11:29:00,60.1,58.3,29.78,WNW,294,0.0,0.0,94,9.53,,,14.07,meteohub,2013-11-07 16:29:00,
2013-11-07 11:34:00,59.9,58.1,29.77,WNW,294,0.0,0.0,94,10.12,,,15.39,meteohub,2013-11-07 16:34:00,
2013-11-07 11:39:00,59.7,57.9,29.77,WNW,294,0.0,0.0,94,9.64,,,15.98,meteohub,2013-11-07 16:39:00,
2013-11-07 11:45:00,59.5,57.7,29.77,WNW,294,0.0,0.0,94,9.05,,,17.79,meteohub,2013-11-07 16:45:00,
2013-11-07 11:50:00,59.5,58.1,29.77,WNW,294,0.0,0.0,95,8.77,,,18.71,meteohub,2013-11-07 16:50:00,
2013-11-07 11:55:00,59.4,57.9,29.76,WNW,294,0.0,0.0,95,8.86,,,19.88,meteohub,2013-11-07 16:55:00,
2013-11-07 12:00:00,59.4,57.9,29.76,WNW,294,0.0,0.0,95,8.03,,,20.25,meteohub,2013-11-07 17:00:00,
2013-11-07 12:05:00,59.2,57.7,29.77,WNW,294,0.0,0.0,95,8.94,,,21.63,meteohub,2013-11-07 17:05:00,
2013-11-07 12:10:00,59.0,57.9,29.76,WNW,294,0.0,0.0,96,9.01,,,22.26,meteohub,2013-11-07 17:10:00,
2013-11-07 12:16:00,58.8,57.7,29.76,WNW,294,0.0,0.0,96,10.41,,,23.70,meteohub,2013-11-07 17:16:00,
2013-11-07 12:21:00,58.6,57.6,29.75,WNW,294,0.0,0.0,96,11.29,,,24.77,meteohub,2013-11-07 17:21:00,
2013-11-07 12:26:00,58.6,57.6,29.75,WNW,294,0.0,0.0,96,11.09,,,25.45,meteohub,2013-11-07 17:26:00,
2013-11-07 12:31:00,58.5,57.4,29.75,WNW,294,0.0,0.0,96,11.28,,,26.78,meteohub,2013-11-07 17:31:00,
2013-11-07 12:36:00,58.5,57.4,29.75,WNW,294,0.0,0.0,96,11.78,,,28.22,meteohub,2013-11-07 17:36:00,
2013-11-07 12:41:00,58.3,57.2,29.75,WNW,294,0.0,0.0,96,11.59,,,28.94,meteohub,2013-11-07 17:41:00,
2013-11-07 12:46:00,58.3,57.2,29.74,WNW,294,0.0,0.0,96,12.17,,,30.45,meteohub,2013-11-07 17:46:00,
2013-11-07 12:52:00,58.1,57.0,29.75,WNW,294,0.0,0.0,96,11.92,,,30.97,meteohub,2013-11-07 17:52:00,
2013-11-07 12:57:00,58.1,57.0,29.73,WNW,294,0.0,0.0,96,12.49,,,32.39,meteohub,2013-11-07 17:57:00,
2013-11-07 12:59:00,57.9,57.0,29.73,WNW,294,0.0,0.0,97,12.49,,,32.39,meteohub,2013-11-07 17:59:00,
2013-11-07 13:04:00,57.9,57.0,29.73,WNW,294,0.0,0.0,97,13.04,,,33.83,meteohub,2013-11-07 18:04:00,
2013-11-07 13:09:00,57.9,57.0,29.74,WNW,294,0.0,0.0,97,12.64,,,34.43,meteohub,2013-11-07 18:09:00,
2013-11-07 13:14:00,57.9,57.0,29.73,WNW,294,0.0,0.0,97,12.87,,,35.85,meteohub,2013-11-07 18:14:00,
2013-11-07 13:19:00,57.9,57.0,29.74,WNW,294,0.0,0.0,97,13.26,,,37.25,meteohub,2013-11-07 18:19:00,
2013-11-07 13:24:00,57.9,57.0,29.73,WNW,294,0.0,0.0,97,13.07,,,38.08,meteohub,2013-11-07 18:24:00,
2013-11-07 13:29:00,58.1,57.2,29.74,WNW,294,0.0,0.0,97,13.24,,,39.30,meteohub,2013-11-07 18:29:00,
2013-11-07 13:35:00,58.1,57.2,29.74,WNW,294,0.0,0.0,97,12.97,,,41.43,meteohub,2013-11-07 18:35:00,
2013-11-07 13:40:00,57.9,57.0,29.74,WNW,294,0.0,0.0,97,13.45,,,42.99,meteohub,2013-11-07 18:40:00,
2013-11-07 13:45:00,58.1,57.2,29.74,WNW,294,0.0,0.0,97,13.02,,,43.71,meteohub,2013-11-07 18:45:00,
2013-11-07 13:50:00,58.3,57.4,29.73,WNW,294,0.0,0.0,97,13.60,,,45.15,meteohub,2013-11-07 18:50:00,
2013-11-07 13:55:00,58.3,57.4,29.73,WNW,294,0.0,0.0,97,13.00,,,45.87,meteohub,2013-11-07 18:55:00,
2013-11-07 14:00:00,58.3,57.4,29.73,WNW,294,0.0,0.0,97,13.24,,,47.31,meteohub,2013-11-07 19:00:00,
2013-11-07 14:05:00,58.1,57.2,29.73,WNW,294,0.0,0.0,97,13.48,,,48.63,meteohub,2013-11-07 19:05:00,
2013-11-07 14:11:00,58.1,57.2,29.73,WNW,294,0.0,0.0,97,13.17,,,49.35,meteohub,2013-11-07 19:11:00,
2013-11-07 14:16:00,57.9,57.0,29.73,WNW,294,0.0,0.0,97,13.42,,,50.91,meteohub,2013-11-07 19:16:00,
2013-11-07 14:21:00,57.9,57.0,29.74,WNW,294,0.0,0.0,97,13.13,,,51.71,meteohub,2013-11-07 19:21:00,
2013-11-07 14:26:00,57.9,57.0,29.74,WNW,294,0.0,0.0,97,12.34,,,51.88,meteohub,2013-11-07 19:26:00,
2013-11-07 14:31:00,57.7,56.8,29.74,WNW,294,0.0,0.0,97,12.57,,,53.24,meteohub,2013-11-07 19:31:00,
2013-11-07 14:36:00,57.7,56.8,29.74,WNW,294,0.0,0.0,97,12.05,,,53.96,meteohub,2013-11-07 19:36:00,
2013-11-07 14:42:00,57.7,56.8,29.75,WNW,294,0.0,0.0,97,11.16,,,54.27,meteohub,2013-11-07 19:42:00,
2013-11-07 14:47:00,57.7,56.8,29.75,WNW,294,0.0,0.0,97,10.81,,,55.00,meteohub,2013-11-07 19:47:00,
2013-11-07 14:52:00,56.5,54.1,29.77,WNW,294,0.0,0.0,92,9.76,,,55.03,meteohub,2013-11-07 19:52:00,
2013-11-07 14:57:00,54.9,52.9,29.77,WNW,294,0.0,0.0,93,8.75,,,55.34,meteohub,2013-11-07 19:57:00,
2013-11-07 15:02:00,53.8,51.8,29.75,WNW,294,0.0,0.0,93,8.29,,,55.96,meteohub,2013-11-07 20:02:00,
2013-11-07 15:07:00,52.9,50.9,29.75,WNW,294,0.0,0.0,93,8.00,,,56.87,meteohub,2013-11-07 20:07:00,
2013-11-07 15:12:00,52.3,50.7,29.75,WNW,294,0.0,0.0,94,6.82,,,56.88,meteohub,2013-11-07 20:12:00,
2013-11-07 15:17:00,52.2,50.5,29.76,WNW,294,0.0,0.0,94,5.74,,,56.89,meteohub,2013-11-07 20:17:00,
2013-11-07 15:22:00,52.0,50.5,29.76,WNW,294,0.0,0.0,95,5.18,,,56.89,meteohub,2013-11-07 20:22:00,
2013-11-07 15:27:00,51.6,50.0,29.75,WNW,294,0.0,0.0,94,4.57,,,56.89,meteohub,2013-11-07 20:27:00,
2013-11-07 15:32:00,51.4,50.0,29.76,WNW,294,0.0,0.0,95,3.41,,,56.89,meteohub,2013-11-07 20:32:00,
2013-11-07 15:37:00,51.4,50.0,29.76,WNW,294,0.0,0.0,95,2.69,,,56.89,meteohub,2013-11-07 20:37:00,
2013-11-07 15:42:00,51.3,49.8,29.76,North,-999,-999.0,0.0,95,2.60,,,56.89,meteohub,2013-11-07 20:42:00,
2013-11-07 15:47:00,51.3,49.8,29.75,WNW,294,0.0,0.0,95,1.86,,,56.89,meteohub,2013-11-07 20:47:00,
2013-11-07 15:53:00,51.1,50.0,29.76,WNW,294,0.0,0.0,96,1.86,,,56.89,meteohub,2013-11-07 20:53:00,
2013-11-07 15:58:00,51.1,49.6,29.77,WNW,294,0.0,0.0,95,1.39,,,56.89,meteohub,2013-11-07 20:58:00,
2013-11-07 16:03:00,50.7,49.3,29.77,WNW,294,0.0,0.0,95,0.21,,,56.89,meteohub,2013-11-07 21:03:00,
2013-11-07 16:08:00,50.5,48.9,29.77,WNW,294,0.0,0.0,94,0.01,,,56.89,meteohub,2013-11-07 21:08:00,
2013-11-07 16:13:00,50.4,48.9,29.77,WNW,294,0.0,0.0,95,0.00,,,56.89,meteohub,2013-11-07 21:13:00,
2013-11-07 16:18:00,50.2,48.7,29.76,WNW,294,0.0,0.0,95,0.00,,,56.89,meteohub,2013-11-07 21:18:00,
2013-11-07 16:24:00,50.0,48.6,29.77,WNW,294,0.0,0.0,95,0.00,,,56.89,meteohub,2013-11-07 21:24:00,
2013-11-07 16:29:00,49.5,47.8,29.77,WNW,294,0.0,0.0,94,0.00,,,56.89,meteohub,2013-11-07 21:29:00,
2013-11-07 16:34:00,49.1,47.5,29.77,WNW,294,0.0,0.0,94,0.00,,,56.89,meteohub,2013-11-07 21:34:00,
2013-11-07 16:39:00,48.7,46.8,29.77,WNW,294,0.0,0.0,93,0.00,,,56.89,meteohub,2013-11-07 21:39:00,
2013-11-07 16:44:00,48.6,46.6,29.78,WNW,294,0.0,0.0,93,0.00,,,56.89,meteohub,2013-11-07 21:44:00,
2013-11-07 16:49:00,48.4,46.4,29.79,WNW,294,0.0,0.0,93,0.00,,,56.89,meteohub,2013-11-07 21:49:00,
2013-11-07 16:54:00,48.0,46.0,29.79,WNW,294,0.0,0.0,93,0.00,,,56.89,meteohub,2013-11-07 21:54:00,
2013-11-07 17:00:00,47.8,45.9,29.79,WNW,294,0.0,0.0,93,0.00,,,56.89,meteohub,2013-11-07 22:00:00,
2013-11-07 17:05:00,47.7,45.5,29.80,WNW,294,0.0,0.0,92,0.00,,,56.89,meteohub,2013-11-07 22:05:00,
2013-11-07 17:10:00,47.5,45.0,29.80,WNW,294,0.0,0.0,91,0.00,,,56.89,meteohub,2013-11-07 22:10:00,
2013-11-07 17:15:00,47.1,44.6,29.80,WNW,294,0.0,0.0,91,0.00,,,56.89,meteohub,2013-11-07 22:15:00,
2013-11-07 17:20:00,46.9,44.4,29.81,WNW,294,0.0,0.0,91,0.00,,,56.89,meteohub,2013-11-07 22:20:00,
2013-11-07 17:25:00,46.8,44.2,29.81,WNW,294,0.0,0.0,91,0.00,,,56.89,meteohub,2013-11-07 22:25:00,
2013-11-07 17:30:00,46.6,44.1,29.81,WNW,294,0.0,0.0,91,0.00,,,56.89,meteohub,2013-11-07 22:30:00,
2013-11-07 17:36:00,46.6,43.9,29.82,WNW,294,0.0,0.0,90,0.00,,,56.89,meteohub,2013-11-07 22:36:00,
2013-11-07 17:41:00,46.4,43.7,29.82,WNW,294,0.0,0.0,90,0.00,,,56.89,meteohub,2013-11-07 22:41:00,
2013-11-07 17:46:00,46.2,43.5,29.82,WNW,294,0.0,0.0,90,0.00,,,56.89,meteohub,2013-11-07 22:46:00,
2013-11-07 17:51:00,46.0,42.6,29.83,WNW,294,0.0,0.0,88,0.00,,,56.89,meteohub,2013-11-07 22:51:00,
2013-11-07 17:56:00,45.9,42.8,29.83,WNW,294,0.0,0.0,89,0.00,,,56.89,meteohub,2013-11-07 22:56:00,
2013-11-07 18:01:00,45.7,42.3,29.83,WNW,294,0.0,0.0,88,0.00,,,56.89,meteohub,2013-11-07 23:01:00,
2013-11-07 18:06:00,45.5,42.4,29.83,WNW,294,0.0,0.0,89,0.00,,,56.89,meteohub,2013-11-07 23:06:00,
2013-11-07 18:11:00,45.3,42.3,29.83,WNW,294,0.0,0.0,89,0.00,,,56.89,meteohub,2013-11-07 23:11:00,
2013-11-07 18:17:00,45.1,42.1,29.84,WNW,294,0.0,0.0,89,0.00,,,56.89,meteohub,2013-11-07 23:17:00,
2013-11-07 18:22:00,45.0,41.9,29.84,WNW,294,0.0,0.0,89,0.00,,,56.89,meteohub,2013-11-07 23:22:00,
2013-11-07 18:27:00,44.8,41.7,29.84,WNW,294,0.0,0.0,89,0.00,,,56.89,meteohub,2013-11-07 23:27:00,
2013-11-07 18:32:00,44.6,41.5,29.84,WNW,294,0.0,0.0,89,0.00,,,56.89,meteohub,2013-11-07 23:32:00,
2013-11-07 18:37:00,44.4,41.4,29.85,WNW,294,0.0,0.0,89,0.00,,,56.89,meteohub,2013-11-07 23:37:00,
2013-11-07 18:42:00,44.4,40.8,29.85,WNW,294,0.0,0.0,87,0.00,,,56.89,meteohub,2013-11-07 23:42:00,
2013-11-07 18:47:00,44.2,40.6,29.85,WNW,294,0.0,0.0,87,0.00,,,56.89,meteohub,2013-11-07 23:47:00,
2013-11-07 18:52:00,44.2,40.6,29.85,WNW,294,0.0,0.0,87,0.00,,,56.89,meteohub,2013-11-07 23:52:00,
2013-11-07 18:57:00,44.1,40.5,29.85,WNW,294,0.0,0.0,87,0.00,,,56.89,meteohub,2013-11-07 23:57:00,
2013-11-07 19:02:00,43.9,39.9,29.85,WNW,294,0.0,0.0,86,0.00,,,56.89,meteohub,2013-11-08 00:02:00,
2013-11-07 19:07:00,43.9,39.7,29.85,WNW,294,0.0,0.0,85,0.00,,,0.00,meteohub,2013-11-08 00:07:00,
2013-11-07 19:12:00,43.9,39.7,29.85,WNW,294,0.0,0.0,85,0.00,,,0.00,meteohub,2013-11-08 00:12:00,
2013-11-07 19:17:00,43.9,39.7,29.86,WNW,294,0.0,0.0,85,0.00,,,0.00,meteohub,2013-11-08 00:17:00,
2013-11-07 19:22:00,43.7,39.6,29.86,WNW,294,0.0,0.0,85,0.00,,,0.00,meteohub,2013-11-08 00:22:00,
2013-11-07 19:27:00,43.5,39.4,29.86,WNW,294,0.0,0.0,85,0.00,,,0.00,meteohub,2013-11-08 00:27:00,
2013-11-07 19:32:00,43.3,39.2,29.86,WNW,294,0.0,0.0,85,0.00,,,0.00,meteohub,2013-11-08 00:32:00,
2013-11-07 19:37:00,43.3,39.2,29.85,WNW,294,0.0,0.0,85,0.00,,,0.00,meteohub,2013-11-08 00:37:00,
2013-11-07 19:43:00,43.2,39.0,29.86,WNW,294,0.0,0.0,85,0.00,,,0.00,meteohub,2013-11-08 00:43:00,
2013-11-07 19:48:00,43.2,39.0,29.86,WNW,294,0.0,0.0,85,0.00,,,0.00,meteohub,2013-11-08 00:48:00,
2013-11-07 19:53:00,43.0,38.8,29.86,WNW,294,0.0,0.0,85,0.00,,,0.00,meteohub,2013-11-08 00:53:00,
2013-11-07 19:58:00,42.8,38.7,29.86,WNW,294,0.0,0.0,85,0.00,,,0.00,meteohub,2013-11-08 00:58:00,
2013-11-07 20:03:00,42.6,38.7,29.87,WNW,294,0.0,0.0,86,0.00,,,0.00,meteohub,2013-11-08 01:03:00,
2013-11-07 20:08:00,42.4,38.5,29.87,WNW,294,0.0,0.0,86,0.00,,,0.00,meteohub,2013-11-08 01:08:00,
2013-11-07 20:14:00,42.4,38.5,29.87,WNW,294,0.0,0.0,86,0.00,,,0.00,meteohub,2013-11-08 01:14:00,
2013-11-07 20:19:00,42.4,38.5,29.87,WNW,294,0.0,0.0,86,0.00,,,0.00,meteohub,2013-11-08 01:19:00,
2013-11-07 20:24:00,42.4,38.5,29.87,WNW,294,0.0,0.0,86,0.00,,,0.00,meteohub,2013-11-08 01:24:00,
2013-11-07 20:29:00,42.4,38.5,29.87,WNW,294,0.0,0.0,86,0.00,,,0.00,meteohub,2013-11-08 01:29:00,
2013-11-07 20:34:00,42.4,38.3,29.87,WNW,294,0.0,0.0,85,0.00,,,0.00,meteohub,2013-11-08 01:34:00,
2013-11-07 20:39:00,42.4,37.9,29.87,WNW,294,0.0,0.0,84,0.00,,,0.00,meteohub,2013-11-08 01:39:00,
2013-11-07 20:45:00,42.8,37.9,29.88,WNW,294,0.0,0.0,83,0.00,,,0.00,meteohub,2013-11-08 01:45:00,
2013-11-07 20:50:00,43.2,37.8,29.88,WNW,294,0.0,0.0,81,0.00,,,0.00,meteohub,2013-11-08 01:50:00,
2013-11-07 20:55:00,43.2,37.4,29.88,WNW,294,0.0,0.0,80,0.00,,,0.00,meteohub,2013-11-08 01:55:00,
2013-11-07 21:00:00,43.2,37.8,29.88,WNW,294,0.0,0.0,81,0.00,,,0.00,meteohub,2013-11-08 02:00:00,
2013-11-07 21:05:00,43.2,37.8,29.89,WNW,294,0.0,0.0,81,0.00,,,0.00,meteohub,2013-11-08 02:05:00,
2013-11-07 21:11:00,43.2,37.8,29.89,WNW,294,0.0,0.0,81,0.00,,,0.00,meteohub,2013-11-08 02:11:00,
2013-11-07 21:16:00,43.0,37.6,29.89,WNW,294,0.0,0.0,81,0.00,,,0.00,meteohub,2013-11-08 02:16:00,
2013-11-07 21:21:00,42.6,37.2,29.89,WNW,294,0.0,0.0,81,0.00,,,0.00,meteohub,2013-11-08 02:21:00,
2013-11-07 21:26:00,42.4,37.4,29.89,WNW,294,0.0,0.0,82,0.00,,,0.00,meteohub,2013-11-08 02:26:00,
2013-11-07 21:31:00,42.4,37.4,29.90,WNW,294,0.0,0.0,82,0.00,,,0.00,meteohub,2013-11-08 02:31:00,
2013-11-07 21:36:00,42.3,37.2,29.90,WNW,294,0.0,0.0,82,0.00,,,0.00,meteohub,2013-11-08 02:36:00,
2013-11-07 21:41:00,42.1,37.0,29.90,WNW,294,0.0,0.0,82,0.00,,,0.00,meteohub,2013-11-08 02:41:00,
2013-11-07 21:46:00,41.9,37.0,29.90,WNW,294,0.0,0.0,83,0.00,,,0.00,meteohub,2013-11-08 02:46:00,
2013-11-07 21:51:00,41.7,36.9,29.90,WNW,294,0.0,0.0,83,0.00,,,0.00,meteohub,2013-11-08 02:51:00,
2013-11-07 21:57:00,41.7,36.9,29.90,WNW,294,0.0,0.0,83,0.00,,,0.00,meteohub,2013-11-08 02:57:00,
2013-11-07 22:02:00,41.7,36.9,29.90,WNW,294,0.0,0.0,83,0.00,,,0.00,meteohub,2013-11-08 03:02:00,
2013-11-07 22:07:00,41.5,36.7,29.90,WNW,294,0.0,0.0,83,0.00,,,0.00,meteohub,2013-11-08 03:07:00,
2013-11-07 22:12:00,41.7,36.9,29.90,WNW,294,0.0,0.0,83,0.00,,,0.00,meteohub,2013-11-08 03:12:00,
2013-11-07 22:17:00,41.5,36.7,29.90,WNW,294,0.0,0.0,83,0.00,,,0.00,meteohub,2013-11-08 03:17:00,
2013-11-07 22:22:00,41.5,36.7,29.90,WNW,294,0.0,0.0,83,0.00,,,0.00,meteohub,2013-11-08 03:22:00,
2013-11-07 22:27:00,41.7,36.7,29.89,WNW,294,0.0,0.0,82,0.00,,,0.00,meteohub,2013-11-08 03:27:00,
2013-11-07 22:32:00,41.5,36.5,29.89,WNW,294,0.0,0.0,82,0.00,,,0.00,meteohub,2013-11-08 03:32:00,
2013-11-07 22:37:00,41.5,36.1,29.90,WNW,294,0.0,0.0,81,0.00,,,0.00,meteohub,2013-11-08 03:37:00,
2013-11-07 22:42:00,41.7,36.0,29.89,WNW,294,0.0,0.0,80,0.00,,,0.00,meteohub,2013-11-08 03:42:00,
2013-11-07 22:47:00,41.5,36.1,29.89,WNW,294,0.0,0.0,81,0.00,,,0.00,meteohub,2013-11-08 03:47:00,
2013-11-07 22:52:00,41.5,35.8,29.90,WNW,294,0.0,0.0,80,0.00,,,0.00,meteohub,2013-11-08 03:52:00,
2013-11-07 22:57:00,41.5,36.1,29.89,WNW,294,0.0,0.0,81,0.00,,,0.00,meteohub,2013-11-08 03:57:00,
2013-11-07 23:02:00,41.2,36.1,29.90,WNW,294,0.0,0.0,82,0.00,,,0.00,meteohub,2013-11-08 04:02:00,
2013-11-07 23:07:00,41.0,36.0,29.89,WNW,294,0.0,0.0,82,0.00,,,0.00,meteohub,2013-11-08 04:07:00,
2013-11-07 23:12:00,40.8,35.4,29.90,WNW,294,0.0,0.0,81,0.00,,,0.00,meteohub,2013-11-08 04:12:00,
2013-11-07 23:17:00,41.0,35.6,29.90,WNW,294,0.0,0.0,81,0.00,,,0.00,meteohub,2013-11-08 04:17:00,
2013-11-07 23:22:00,41.0,35.6,29.90,WNW,294,0.0,0.0,81,0.00,,,0.00,meteohub,2013-11-08 04:22:00,
2013-11-07 23:27:00,41.2,35.4,29.90,WNW,294,0.0,0.0,80,0.00,,,0.00,meteohub,2013-11-08 04:27:00,
2013-11-07 23:32:00,40.8,35.1,29.90,WNW,294,0.0,0.0,80,0.00,,,0.00,meteohub,2013-11-08 04:32:00,
2013-11-07 23:37:00,40.8,35.1,29.90,WNW,294,0.0,0.0,80,0.00,,,0.00,meteohub,2013-11-08 04:37:00,
2013-11-07 23:42:00,40.6,35.2,29.90,WNW,294,0.0,0.0,81,0.00,,,0.00,meteohub,2013-11-08 04:42:00,
2013-11-07 23:47:00,40.6,34.9,29.90,WNW,294,0.0,0.0,80,0.00,,,0.00,meteohub,2013-11-08 04:47:00,
2013-11-07 23:52:00,40.5,34.7,29.90,WNW,294,0.0,0.0,80,0.00,,,0.00,meteohub,2013-11-08 04:52:00,
2013-11-07 23:57:00,40.5,34.7,29.90,WNW,294,0.0,0.0,80,0.00,,,0.00,meteohub,2013-11-08 04:57:00,